www.pogodaiklimat.ru

Погода и климат >> Архив погоды >> Антигуа и Барбуда >> Сент-Джонс


ПОГОДА в Сент-Джонсе

  • Прогноз погоды в Сент-Джонсе
  • Монитор погоды в Сент-Джонсе

АРХИВ ПОГОДЫ в Сент-Джонсе

Время (UTC), дата Ветер
(напр.,м/с)
 
Видим.   Явления Облачность Т
(С)
Тd
(С)
f
(%)
Тe
(С)
Тes
(С)
Комфортность P
(гПа)
Po
(гПа)
Тmin
(С)
Tmax
(С)
R
(мм)
R24
(мм)
S
(см)
18 18.06 В 6 22 км пыль 9/4 600 м
[Cu Sc Ac lent Ci sp]
+28.4 +24.4 79 +40 +42 очень
душно
1017.6 1015.3 +26.5 +30.1
00 19.06 В 5 22 км пыль {ливн. осадки} 9/5 480 м
[Cu med, cong Ci sp]
+27.4 +23.7 80 +37 +37 очень
душно
1018.4 1016.1 +26.5 +30.1 0.0
03 19.06 В 6 22 км пыль 9/4 500 м
[Cu Sc Ci sp]
+27.1 +23.8 82 +37 +37 очень
душно
1019.5 1017.2
06 19.06 В 5 22 км пыль 9/9 540 м
[Cu Sc Ci sp]
+27.1 +23.6 81 +37 +37 очень
душно
1017.9 1015.6 +26.5 +30.1
09 19.06 В 5 22 км пыль 9/4 540 м
[Cu Sc Ci sp]
+27.0 +22.9 78 +36 +36 очень
душно
1017.8 1015.5
12 19.06 В 5 24 км пыль 9/6 540 м
[Cu Sc Ac lent Ci sp]
+28.3 +22.9 73 +38 +39 очень
душно
1018.8 1016.5 +26.7 +30.1
18 19.06 В 6 24 км пыль 9/4 600 м
[Cu med, cong Ci sp]
+29.4 +23.7 71 +40 +43 очень
душно
1017.8 1015.5 +26.7 +30.1
21 19.06 В 5 24 км в посл. час ливневой дождь 9/8 480 м
[Cu med, cong Ci sp]
+26.9 +24.2 85 +37 +38 очень
душно
1016.8 1014.5
00 20.06 В 5 22 км пыль {ливн. осадки} 9/1 600 м
[Cu med, cong Ci sp]
+27.4 +23.2 78 +37 +37 очень
душно
1018.6 1016.3 +26.6 +30.1 1
03 20.06 В 5 22 км пыль 9/1 660 м
[Cu med, cong Ci sp]
+27.3 +23.1 78 +37 +37 очень
душно
1019.3 1017.0
06 20.06 В 6 22 км пыль 9/6 500 м
[Cu med, cong Ci sp]
+27.2 +23.5 80 +37 +37 очень
душно
1018.4 1016.1 +26.6 +30.1
09 20.06 В 5 22 км пыль 9/5 540 м
[Cu med, cong Ci sp]
+27.1 +23.2 79 +36 +36 очень
душно
1018.6 1016.3
12 20.06 В 6 22 км пыль 8/4 540 м
[Cu Sc Ac lent Ci sp]
+28.1 +22.8 73 +37 +38 очень
душно
1020.2 1017.9 +26.7 +30.1
15 20.06 В 6 24 км пыль 4/4 600 м
[Cu med, cong]
+29.5 +24.0 72 +41 +45 опасность
перегрева
1020.5 1018.2
18 20.06 В 6 24 км пыль 4/4 600 м
[Cu med, cong]
+29.4 +23.9 72 +40 +45 очень
душно
1019.7 1017.4 +26.6 +30.1
00 21.06 В 5 20 км пыль 6/5 540 м
[Cu med, cong Ci sp]
+27.4 +23.3 78 +37 +37 очень
душно
1019.8 1017.5 +26.9 +30.1
03 21.06 В 4 20 км пыль 6/4 540 м
[Cu med, cong Ci sp]
+27.1 +23.6 81 +37 +37 очень
душно
1020.0 1017.7
06 21.06 В 4 20 км пыль 6/5 570 м
[Cu med, cong Ci sp]
+26.9 +23.5 82 +37 +37 очень
душно
1019.1 1016.8 +26.7 +30.1
09 21.06 В 5 20 км пыль 9/3 600 м
[Cu Sc Ci sp]
+26.8 +22.3 76 +35 +35 очень
душно
1019.0 1016.7
12 21.06 В 5 18 км пыль 9/1 600 м
[Cu Sc Ci sp]
+28.3 +23.1 73 +38 +40 очень
душно
1020.0 1017.7 +26.6 +30.1
15 21.06 В 5 18 км осадки на расстоянии 6/3 600 м
[Cu Sc Ci sp]
+29.6 +23.7 71 +41 +48 опасность
перегрева
1020.7 1018.4
18 21.06 В 4 18 км пыль 9/8 600 м
[Cu Sc Ci sp]
+29.4 +24.3 74 +41 +43 опасность
перегрева
1019.5 1017.2 +26.6 +30.1
21 21.06 В 5 18 км пыль 4/4 540 м
[Cu med, cong]
+28.4 +23.5 75 +39 +40 очень
душно
1019.0 1016.7
00 22.06 В 4 18 км пыль 3/3 540 м
[Cu med, cong Ci sp]
+27.1 +23.1 79 +36 +36 очень
душно
1019.7 1017.4 +26.6 +30.1
06 22.06 В 5 18 км пыль 4/4 540 м
[Cu med, cong]
+26.8 +22.7 78 +35 +35 очень
душно
1019.3 1017.0 +26.6 +30.1
09 22.06 В 3 18 км в посл. час ливневой дождь 5/5 540 м
[Cu med, cong]
+26.7 +22.9 80 +36 +36 очень
душно
1019.3 1017.0
12 22.06 В 5 28 км пыль {ливн. осадки} 8/8 540 м
[Cu med, cong]
+27.8 +22.3 72 +36 +37 очень
душно
1020.1 1017.8 +26.3 +30.1 0.0
15 22.06 ЮВ 6 30 км 3/3 600 м
[Cu med, cong]
+29.6 +21.8 63 +38 +44 очень
душно
1019.8 1017.5
18 22.06 В 5 30 км 3/3 600 м
[Cu med, cong Ci sp]
+29.3 +22.0 65 +38 +44 очень
душно
1018.7 1016.4 +26.3 +29.9
21 22.06 В 4 30 км 3/3 600 м
[Cu med, cong Ci sp]
+28.6 +21.8 67 +37 +38 очень
душно
1018.0 1015.7
00 23.06 В 4 28 км слаб. ливневой дождь 9/8 500 м
[Cu Sc Ci sp]
+26.5 +22.7 80 +35 +35 очень
душно
1019.3 1017.0 +26.3 +29.9 0.0
03 23.06 В 5 30 км {ливн. осадки} 5/4 540 м
[Cu Sc Ci sp]
+26.9 +22.5 77 +35 +35 очень
душно
1020.0 1017.7
06 23.06 В 4 30 км {ливн. осадки} 4/4 540 м
[Cu Sc Ci sp]
+26.4 +21.5 74 +34 +34 очень
душно
1018.3 1016.0 +26.3 +29.9 0.1
12 23.06 В 4 28 км пыль 9/8 570 м
[Cu Sc Ci sp]
+27.6 +23.1 77 +37 +38 очень
душно
1018.8 1016.5 +24.5 +29.9
15 23.06 В 5 30 км 9/5 540 м
[Cu med, cong Cs]
+29.6 +24.2 73 +41 +46 опасность
перегрева
1018.3 1016.0
18 23.06 В 6 26 км пыль 5/5 540 м
[Cu med, cong]
+29.8 +24.0 71 +41 +45 опасность
перегрева
1017.6 1015.3 +24.5 +30.3
21 23.06 В 5 26 км пыль 8/5 540 м
[Cu med, cong Ci sp]
+28.9 +23.9 74 +40 +41 очень
душно
1016.6 1014.3
00 24.06 В 3 26 км пыль 9/4 540 м
[Cu med, cong Ci sp]
+27.3 +23.7 81 +37 +37 очень
душно
1016.7 1014.4 +24.5 +30.3
03 24.06 В 4 22 км осадки на расстоянии 9/5 540 м
[Cu med, cong Ci sp]
+27.1 +23.3 80 +37 +37 очень
душно
1017.3 1015.0
06 24.06 В 3 26 км пыль 9/4 540 м
[Cu med, cong Ci sp]
+26.7 +23.4 82 +36 +36 очень
душно
1016.1 1013.8 +24.5 +30.3
09 24.06 В 4 26 км пыль {ливн. осадки} 9/3 500 м
[Cu Sc Ci sp]
+26.8 +23.6 83 +37 +37 очень
душно
1015.7 1013.4
12 24.06 В 4 26 км осадки на расстоянии {ливн. осадки} 9/9 360 м
[Cu Sc Ac trans Ci sp]
+27.1 +23.8 82 +37 +38 очень
душно
1016.5 1014.2 +25.8 +30.3 0.0
15 24.06 ЮВ 4 30 км {ливн. осадки} 9/9 450 м
[Cu Sc Ci sp]
+27.6 +24.5 83 +39 +40 очень
душно
1016.7 1014.4
18 24.06 В 5 30 км {ливн. осадки, дождь} 9/6 540 м
[Cu Sc Ci sp]
+28.7 +24.5 78 +41 +44 опасность
перегрева
1015.6 1013.3 +25.7 +30.1 2
00 25.06 ЮВ 2 30 км 8/1 540 м
[Cu hum Ci sp]
+27.3 +23.9 82 +38 +38 очень
душно
1016.5 1014.2 +25.7 +30.1
03 25.06 В 4 26 км осадки на расстоянии 9/6 480 м
[Cu med, cong Ci sp]
+27.4 +24.6 85 +39 +39 очень
душно
1017.2 1014.9
06 25.06 ЮВ 2 30 км 9/8 540 м
[Cu med, cong Ci sp]
+27.1 +24.0 83 +37 +37 очень
душно
1016.1 1013.8 +25.7 +30.1
09 25.06 ЮВ 3 30 км 8/1 540 м
[Cu hum Ci sp]
+26.7 +22.9 80 +36 +36 очень
душно
1015.7 1013.4
12 25.06 ЮВ 4 26 км пыль 8/3 540 м
[Cu med, cong Ci fib]
+28.4 +23.5 75 +39 +41 очень
душно
1016.8 1014.5 +26.4 +30.1

 

Местоположение метеостанции Сент-Джонс (Антигуа и Барбуда): широта 17.12 долгота -61.78 высота над уровнем моря 10 м.

В архиве по умолчанию представлена погода в Сент-Джонсе за последнюю неделю. Архивные данные за месяц целиком и за предыдущие месяцы, начиная с января 2011 года, Вы можете получить, выбрав интересующий диапазон дат из раскрывающегося списка и нажав кнопку "Ввод!".


*Определитесь, кто Вы:
робот инопланетянин человек

Внимание! Время в таблицах - всемирное. Для получения местного времени необходимо прибавить поправку, которая равна -4 ч.

Смотрите также архив погоды в соседних городах и на ближайших метеорологических станциях:

Погода в Аэропорту Ванс Амори (Сент-Китс и Невис) (87 км)
Погода в Пуэнт-а-Питре (Гваделупа) (96 км)
Погода в Аэропорту Роберт Брэдшоу (Сент-Китс и Невис) (98 км)
Погода в Принцессы Юлианы аэропорту (Нидерландские Антилы) (174 км)
Погода в Ангилье (Ангилья) (180 км)
Погода в Канфилд аэропорту (Доминика) (181 км)
Погода в Дуглас-Шарль аэропорту (Доминика) (184 км)
Погода на Каравелле (Мартиника) (279 км)
Погода в Аэропорту Мартиники (Мартиника) (292 км)
Погода в Виги (Сент-Люсия) (356 км)

Пояснения к столбцам:

Ветер - указаны скорость ветра в м/с - средняя за 10 мин, порывы в срок и между сроками (в фигурных скобках) и направление, откуда дует ветер: С - северный, СВ - северо-восточный, В - восточный, ЮВ - юго-восточный, Ю - южный, ЮЗ - юго-западный, З - западный, СЗ - северо-западный.
Видимость - горизонтальная дальность видимости в метрах или километрах. При видимости от 1 до 10 км при отсутствии осадков обычно наблюдается дымка, при ухудшении видимости до 1 км и менее - туман. В сухую погоду видимость может ухудшаться дымом, пылью или мглою.
Явления - указаны атмосферные явления, наблюдавшиеся в срок или в последний час перед сроком; фигурными скобками обозначены явления, наблюдавшиеся между сроками (за 1-3 часа до срока); квадратными скобками обозначены град или гололедные отложения с указанием их диаметра в мм.
Облачность - указаны через наклонную черту общая и нижняя облачность в баллах и высота нижней границы облаков в метрах; квадратными скобками обозначены формы облаков: Ci - перистые, Cs - перисто-слоистые, Cc - перисто-кучевые, Ac - высококучевые, As - высокослоистые, Sc - слоисто-кучевые, Ns - слоисто-дождевые, Cu - кучевые, Cb - кучево-дождевые. Подробнее классификацию облаков см. в Атласе облаков (PDF).
T - Температура воздуха - температура, измеренная на высоте 2 м над землей.
Td - Температура точки росы - температура, при понижении до которой содержащийся в воздухе водяной пар достигнет насыщения.
f - Относительная влажность воздуха - влажноcть воздуха, измеренная на высоте 2 м над землей.
Te - Эффективная температура - температура, которую ощущает одетый по сезону человек в тени. Характеристика душности погоды. При расчете учитывается влияние влажности воздуха и скорости ветра на теплоощущения человека.
Tes - Эффективная температура на солнце - температура, которую ощущает человек, с поправкой на солнечный нагрев. Характеристика знойности погоды. Зависит от высоты солнца над горизонтом, облачности и скорости ветра. Ночью, в пасмурную погоду, а также при ветре 12 м/с и более поправка равна нулю.
P - Атмосферное давление - приведенное к уровню моря атмосферное давление.
Po - Атмосферное давление - измеренное на уровне метеостанции атмосферное давление.
Tmin - Минимальная температура - минимум температуры воздуха на высоте 2 м над землей.
Tmax - Максимальная температура - максимум температуры воздуха на высоте 2 м над землей.
R - Количество осадков - Количество выпавших осадков за период времени, мм. При наведении курсора мыши на число - период времени, за который выпало указанное количество осадков.
R24 - Количество осадков - Количество выпавших осадков за 24 часа, мм.
S - Снежный покров - Высота снежного покрова, см. При наведении курсора мыши на число - состояние снежного покрова и степень покрытия местности в баллах.